Retour au catalogue

CZ-6A DEB

ActifSSO
NORAD 56263·DEBRIS·🇨🇳 China

Lancé Nov 11, 2022 depuis Taiyuan Satellite Launch Center

Loading…

Prochains Passages (prochaines 24 heures)

TLE

FraisSource: Space-Track

Époque: Sep 14, 2026, 14:19 UTC

1 56263U 22151ACF 26257.59658981  .00001434  00000-0  32305-3 0  9994
2 56263  98.4903 301.3492 0116687 358.8477   1.2432 14.53921921184563

Suivez CZ-6A DEB en temps réel avec AllMySat

Download on the App Store